Weather Roundup
Issued by NWS

Home | Current Version | Previous Version | Text Only | Print | Product List | Glossary On
Versions: 1 2 3 4 5 6 7 8 9 10 11 12 13 14 15 16 17 18 19 20 21 22 23 24 25 26 27 28 29 30 31 32 33 34 35 36 37 38 39 40 41 42 43 44 45 46 47 48 49 50
011
NZUS93 KARX 270859
HRRWXR

CURRENT HOURLY OBSERVATIONS ACROSS
MUCH OF THE UPPER MISSISSIPPI VALLEY
NATIONAL WEATHER SERVICE LA CROSSE WI
400 AM CDT MON MAR 27 2017


...SOUTHEAST MINNESOTA...


CITY           SKY/WX    TMP DP  RH WIND       PRES   REMARKS
ROCHESTER      FOG       38  38 100 NW6       29.91R VSB 1   WCI  33
ROCHESTER/MAYO CLOUDY    38  38 100 NW3       29.92R
WINONA         CLOUDY    41  37  87 CALM      29.92S FOG
AUSTIN         FOG       39  37  93 NW5       29.92R VSB 3/4
ALBERT LEA     CLOUDY    37  37 100 NW3       29.93R FOG
DODGE CENTER   FOG       37  37 100 NW5       29.91R VSB 1   WCI  34
PRESTON        CLOUDY    38  37  97 N3        29.91R FOG
OWATONNA       FOG       37  37 100 CALM      29.93R VSB 3/4
FARIBAULT      CLOUDY    37  37 100 NW5       29.93S FOG     WCI  34
$$

...ELSEWHERE IN MINNESOTA...


CITY           SKY/WX    TMP DP  RH WIND       PRES   REMARKS
MINNEAPOLIS    CLOUDY    38  33  82 N9        29.94R WCI  31
INTNL FALLS    CLEAR     27  24  89 CALM      29.94S
DULUTH         FOG       31  30  96 NW3       29.92S VSB 3/4
RED WING       CLOUDY    39  37  93 CALM      29.91F
REDWOOD FALLS  CLOUDY    40  36  86 NW5       29.94F
MANKATO        CLOUDY    38  36  92 NW6       29.95R WCI  33
WORTHINGTON    CLOUDY    36  35  96 W6        29.95F WCI  31
FAIRMONT       CLOUDY    39  37  92 NW8       29.95  WCI  33
$$

...SOUTHWEST WISCONSIN...


CITY           SKY/WX    TMP DP  RH WIND       PRES   REMARKS
LA CROSSE      CLOUDY    42  41  96 CALM      29.91R
PRAIRIE DU CHI CLOUDY    42  39  92 CALM      29.90S
BOSCOBEL       CLOUDY    42  41  96 CALM      29.91S FOG
LONE ROCK      NOT AVBL
PLATTEVILLE    CLOUDY    42  42 100 NW3       29.90S VSB 1/2
FORT MC COY    CLOUDY    39  39 100 CALM      29.90F FOG
CAMP DOUGLAS   CLOUDY    39  39 100 W3        29.89S
MAUSTON-NEW LI CLOUDY    40  40  97 CALM      29.88F FOG
VIROQUA        CLOUDY    39  39 100 W3        29.89S VSB 3/4
WIS DELLS      CLOUDY    39  38  98 CALM      29.89F FOG
$$

...ELSEWHERE IN WISCONSIN...


CITY           SKY/WX    TMP DP  RH WIND       PRES   REMARKS
MILWAUKEE      CLOUDY    44  39  82 NW7       29.89R
MADISON        CLOUDY    40  39  97 CALM      29.89F
GREEN BAY      CLOUDY    38  38 100 W5        29.88R WCI  34
EAU CLAIRE     NOT AVBL
BLACK RVR FLS  CLOUDY    40  40 100 NE3       29.88F FOG
MEDFORD        CLOUDY    34  34  99 NW3       29.87S
WAUSAU         CLOUDY    37  37 100 NW3       29.86S
WIS RAPIDS     CLOUDY    39  39 100 CALM      29.89S FOG
MARSHFIELD     CLOUDY    38  37  97 W3        29.87S
RICE LAKE      DRIZZLE   35  34  98 CALM      29.94R
$$

...NORTHEAST IOWA...


CITY           SKY/WX    TMP DP  RH WIND       PRES   REMARKS
WATERLOO       CLOUDY    42  39  89 N5        29.92S
DUBUQUE        CLOUDY    43  42  97 CALM      29.90S FOG
DECORAH        CLOUDY    39  39 100 CALM      29.90R FOG
MASON CITY     CLOUDY    39  38  96 NW6       29.93S FOG     WCI  35
CHARLES CITY   CLOUDY    41  41 100 CALM      29.92S FOG
OELWEIN        CLOUDY    41  41 100 CALM      29.92S
$$

...ELSEWHERE IN IOWA...


CITY           SKY/WX    TMP DP  RH WIND       PRES   REMARKS
DES MOINES     FOG       45  43  93 N7        29.91F VSB 1
IOWA CITY      CLOUDY    47  45  93 W3        29.91F
FORT DODGE     CLOUDY    39  36  87 N5        29.93F
MARSHALLTOWN   FOG       43  43 100 N6        29.91S VSB 3/4
CEDAR RAPIDS   CLOUDY    44  44 100 W5        29.90F
$$

...NORTHERN ILLINOIS...


CITY           SKY/WX    TMP DP  RH WIND       PRES   REMARKS
CHICAGO-OHARE  CLOUDY    51  48  89 W5        29.88S
CHICAGO-MIDWAY CLOUDY    51  50  96 SW8       29.89F FOG
MOLINE         CLOUDY    48  45  89 SW5       29.91F FOG
ROCKFORD       CLOUDY    46  45  96 CALM      29.92R FOG
PEORIA         CLOUDY    49  47  93 CALM      29.91F
$$

NOTE: "FAIR" INDICATES FEW OR NO CLOUDS BELOW 12,000 FEET WITH NO
SIGNIFICANT WEATHER AND/OR OBSTRUCTIONS TO VISIBILITY. WIND
SPEEDS ARE IN MILES-PER-HOUR.




USA.gov is the U.S. government's official web portal to all federal, state and local government web resources and services.